Theta_e
325 327 330 332 334 333 334 333 336 335 336 335 336 336 338 338 338 337 338 337 337 337 336 332 335 336 337 338 339 338 337 335 333 335 335 337 339 339 338 335 335 335 338
325 328 330 331 334 335 332 333 332 332 332 334 333 337 336 336 337 337 337 337 337 336 334 333 332 334 335 336 335 336 331 328 328 330 333 336 337 338 337 337 338 339 336
327 329 332 333 333 335 334 332 332 334 336 336 334 334 333 333 334 333 333 333 333 333 331 330 332 331 332 334 333 332 327 325 325 326 328 332 334 337 338 337 336 337 338
328 332 333 333 333 334 333 332 333 335 334 333 332 332 331 330 330 329 329 329 328 328 327 328 328 328 328 333 333 333 328 328 330 332 334 336 333 333 334 336 337 337 336
327 331 331 331 331 329 324 335 336 332 331 330 330 329 328 327 326 325 325 325 324 323 323 324 324 324 324 325 327 328 329 330 331 332 332 333 333 333 333 333 333 335 336
326 329 329 329 330 330 330 329 328 328 329 328 327 325 324 324 323 322 322 321 320 320 320 320 320 320 320 322 326 327 328 329 330 329 328 327 329 329 328 329 330 330 331
324 327 328 328 328 328 329 329 328 327 327 326 324 323 322 321 321 320 319 318 317 317 317 317 316 316 316 318 323 324 322 323 324 324 324 323 325 325 324 324 325 327 327
323 325 326 327 327 326 325 325 326 325 324 323 322 322 320 320 319 318 316 315 315 313 313 313 313 312 311 312 316 317 317 318 319 319 318 318 320 321 321 320 321 322 322
322 322 323 324 324 324 323 324 323 322 321 321 320 319 317 316 316 315 314 313 311 310 309 308 308 308 307 307 308 308 309 310 313 313 312 313 316 318 317 317 317 318 318
320 320 320 320 320 321 320 319 319 318 317 317 315 314 312 311 310 310 309 309 308 307 306 303 300 300 300 300 301 301 300 301 303 303 305 310 313 315 314 314 315 315 316
316 318 317 317 317 316 316 314 314 313 312 311 309 309 306 304 303 304 305 304 304 303 301 299 295 295 295 296 295 296 296 295 295 296 300 307 310 312 311 312 312 313 314
313 315 316 316 314 313 312 311 310 309 308 306 303 301 300 300 300 299 297 296 295 295 295 294 294 293 294 294 293 294 294 294 293 295 303 307 310 312 312 313 316 317 318
312 313 313 311 311 311 310 309 308 306 301 298 297 298 297 295 294 294 294 293 293 293 293 293 293 293 292 292 292 292 292 292 292 296 303 307 313 315 316 314 314 313 314
309 309 311 310 309 308 308 307 306 302 297 296 296 295 295 295 293 293 293 292 292 292 292 292 292 291 291 290 290 291 291 292 292 295 300 304 308 311 310 309 309 308 308
308 307 305 307 306 305 304 299 297 296 296 296 295 294 293 293 293 292 292 292 291 291 290 290 290 290 290 289 289 290 291 291 291 294 298 303 304 304 304 304 304 304 305
306 307 305 302 303 303 301 298 296 295 294 294 293 293 292 293 293 292 291 291 290 290 290 289 289 289 289 289 289 289 290 290 290 291 293 295 297 299 300 300 299 299 300
306 306 306 302 299 299 298 295 295 294 293 293 293 292 291 291 291 291 291 290 290 289 289 289 288 288 288 288 288 288 289 288 288 289 289 289 289 291 295 295 294 295 296
304 305 303 301 298 297 296 295 293 292 292 291 291 291 291 290 290 290 290 289 289 288 288 288 288 287 287 287 287 287 288 287 287 287 287 287 287 287 287 288 289 290 293
304 304 302 299 297 295 294 294 292 291 290 290 290 290 289 289 289 288 288 287 287 287 287 287 287 287 287 286 286 286 286 287 287 287 286 286 286 286 286 286 287 287 288
303 303 301 298 296 295 294 292 290 289 289 289 289 289 288 288 288 288 287 287 286 286 286 286 285 285 285 285 286 286 286 286 286 285 286 285 285 286 285 286 286 286 286
302 300 300 298 296 294 292 290 288 288 288 287 288 288 287 287 286 286 286 286 285 286 285 285 285 285 285 285 285 285 286 285 285 285 285 285 285 285 285 285 285 284 284
299 299 297 297 296 293 292 290 289 288 287 287 287 287 286 286 286 285 285 285 285 285 284 284 284 284 284 284 285 285 288 287 286 285 284 284 284 284 284 284 284 283 283
297 296 295 294 294 292 291 290 289 287 286 285 285 285 285 285 285 285 284 284 284 284 284 283 283 284 284 283 283 284 288 288 285 284 284 284 284 284 284 283 283 283 283
298 296 295 293 292 291 290 289 289 287 286 286 285 285 285 284 284 284 284 284 284 283 283 283 283 283 283 283 282 282 282 283 286 287 284 283 283 283 283 283 282 282 282
297 295 294 293 292 290 290 290 289 288 287 286 285 285 284 284 284 284 283 283 283 282 282 282 282 282 282 282 282 282 282 282 282 284 286 284 283 282 282 282 282 282 282
296 294 293 291 290 290 290 289 289 288 287 286 285 284 284 284 283 283 283 283 282 282 282 281 281 281 281 281 281 281 281 282 282 282 282 283 282 282 282 282 282 282 282
Wind_Speed
3 6 9 10 7 11 12 14 15 13 14 16 18 19 18 19 20 18 18 19 20 20 19 16 17 18 19 19 19 21 22 24 24 23 21 19 19 18 19 20 20 19 18
1 1 7 7 9 13 14 15 17 16 18 20 21 21 21 19 19 21 20 21 21 22 20 16 16 16 18 18 19 19 19 20 21 22 24 24 21 19 17 17 18 17 18
4 4 7 2 11 14 16 16 18 18 23 27 23 20 18 18 16 18 17 17 18 19 18 18 17 17 18 18 19 19 18 19 19 20 21 19 19 20 21 20 17 16 15
8 12 7 12 9 7 15 18 22 22 25 25 23 22 19 16 17 17 17 18 18 18 18 18 19 18 19 20 19 19 17 18 19 21 21 19 18 19 19 19 19 19 15
9 12 11 14 17 20 20 20 31 29 22 24 23 23 18 17 17 17 18 18 19 18 17 17 18 19 19 19 19 18 19 19 20 23 23 20 19 18 19 19 17 17 20
11 10 10 13 14 18 16 15 20 20 19 21 22 21 18 17 17 18 18 18 19 18 17 18 17 17 18 17 17 18 18 18 19 22 22 21 19 17 16 16 16 16 16
12 13 10 9 12 14 18 16 14 15 16 21 21 19 19 18 17 17 18 18 18 17 17 17 17 16 15 14 15 15 14 14 15 16 16 16 16 14 15 15 15 14 14
14 15 13 13 12 15 19 19 20 19 17 19 20 19 19 17 17 17 17 17 17 17 16 16 17 16 14 12 11 11 10 9 10 11 11 12 13 13 14 14 14 14 14
15 16 15 17 16 15 17 18 19 18 20 18 18 19 18 18 16 17 16 17 18 16 15 15 16 16 14 11 9 8 7 6 7 8 7 10 11 11 11 12 12 12 12
15 16 19 18 19 19 18 18 19 17 20 19 17 20 18 19 17 17 17 16 16 16 16 14 14 13 12 11 8 7 6 4 6 7 8 9 11 11 11 11 11 11 12
18 16 16 20 21 22 21 20 20 18 19 18 18 17 15 15 16 16 16 16 15 15 15 13 12 10 9 8 8 6 5 7 7 8 9 10 11 10 11 12 12 11 11
22 23 20 19 21 22 21 20 19 17 15 13 14 15 14 14 14 13 12 11 11 11 11 10 10 9 9 9 9 7 7 7 7 9 11 11 12 12 12 14 14 14 14
25 23 23 23 23 22 20 18 17 14 14 15 14 13 13 12 12 12 11 10 10 10 10 10 10 9 9 9 8 9 8 8 9 11 13 13 14 15 15 15 15 14 13
31 27 25 24 23 22 20 18 15 15 16 16 15 14 13 13 13 12 11 10 9 10 9 9 9 9 8 8 9 9 9 9 11 13 15 15 14 15 15 15 15 14 13
32 33 29 27 25 24 22 20 20 20 18 16 16 14 13 13 13 12 12 10 9 9 8 9 9 9 8 8 9 9 9 10 10 13 16 17 16 15 15 14 14 14 13
32 35 32 30 28 25 22 21 21 20 19 18 18 16 14 12 11 12 11 11 10 8 8 8 8 8 8 7 8 8 9 9 10 11 11 12 15 15 15 14 14 14 13
37 36 36 33 29 27 25 24 21 19 19 18 17 16 14 13 12 12 11 11 9 8 7 7 7 8 8 7 7 6 7 8 9 9 8 8 7 9 14 14 15 14 13
33 39 37 35 32 28 26 24 22 21 20 19 18 17 14 13 12 11 10 9 9 8 6 6 6 7 8 6 5 4 6 7 6 8 8 7 8 8 8 12 13 13 13
37 38 40 38 36 32 28 25 23 21 20 18 17 16 15 14 13 12 11 11 9 8 7 6 6 7 9 6 5 4 6 7 4 6 5 5 7 8 9 12 13 13 12
34 37 40 40 36 33 30 27 24 23 21 19 19 17 16 15 13 12 11 10 8 7 6 6 6 10 10 7 7 6 5 7 7 5 5 5 7 8 12 16 17 14 14
32 36 42 43 40 38 37 35 29 28 25 22 21 19 16 15 13 12 11 10 9 8 7 5 4 8 13 8 4 4 4 8 5 2 1 2 6 9 13 18 16 16 16
34 39 40 44 46 45 42 35 25 29 26 25 21 19 18 15 13 11 10 10 9 8 7 6 7 6 9 14 5 2 1 2 4 6 4 3 6 10 16 18 14 17 14
29 34 36 39 44 41 41 37 28 29 23 22 22 22 20 17 15 13 11 9 8 7 7 7 8 7 6 8 12 4 0 1 4 2 3 5 6 10 19 18 17 15 15
24 25 30 33 37 36 40 33 35 29 25 21 30 26 22 19 16 13 10 8 7 6 6 6 6 7 6 6 5 7 6 3 2 2 1 3 5 17 15 15 15 14 13
16 22 27 32 36 36 41 35 35 25 22 25 27 24 21 18 16 14 11 9 7 6 5 5 5 6 6 5 4 2 3 2 1 1 4 6 12 8 11 15 13 12 13
12 20 24 26 28 36 38 36 34 31 29 29 29 27 23 21 18 15 12 9 7 6 5 4 4 4 4 4 3 2 1 1 1 1 3 7 13 8 17 9 9 15 14
Wind_Direction
217 212 195 194 199 201 187 173 162 153 144 133 122 122 114 103 104 105 102 101 99 98 89 93 82 79 78 83 89 89 86 84 82 82 81 80 79 75 72 70 69 67 66
171 232 199 223 211 205 195 181 170 168 158 143 141 121 111 102 94 93 93 92 91 90 89 89 91 86 82 84 87 91 90 90 89 85 82 73 74 74 73 73 73 67 62
98 88 96 277 202 203 197 184 171 166 160 124 116 105 101 101 95 96 97 94 87 87 89 89 88 85 80 87 89 91 92 91 88 87 82 74 70 69 68 66 69 69 65
94 95 95 57 157 178 212 197 169 144 114 114 110 104 99 102 97 95 95 95 93 89 86 86 86 83 82 85 87 87 94 94 92 92 77 76 76 71 68 65 65 65 71
123 97 103 91 88 78 79 97 144 119 115 110 110 106 104 101 100 100 97 98 94 91 87 84 81 80 81 82 88 98 102 98 97 92 84 70 75 71 67 65 62 60 63
126 122 113 104 97 96 93 80 90 103 115 113 105 104 108 106 105 104 99 96 92 88 87 83 78 79 82 92 102 106 105 102 100 93 87 72 66 64 61 60 58 57 54
136 123 122 132 110 107 107 110 108 117 111 109 108 117 114 113 110 105 99 94 92 90 84 84 81 78 87 94 105 108 106 103 100 95 90 71 62 62 61 59 57 54 51
136 126 138 128 123 124 111 120 119 122 120 114 120 120 114 111 109 102 97 96 90 85 85 81 81 78 84 92 105 107 101 97 97 90 83 70 59 54 50 49 52 50 49
157 140 140 132 128 117 121 126 127 129 121 119 120 118 116 110 103 99 94 90 88 85 83 82 81 79 82 90 106 110 109 105 100 95 84 59 52 51 51 46 43 45 44
168 161 148 143 139 136 136 132 126 124 120 124 121 119 118 116 107 101 98 88 87 88 84 83 87 88 86 93 111 109 101 108 97 93 77 56 55 52 51 49 49 46 43
170 169 161 155 152 151 144 137 131 131 126 135 145 140 136 127 125 113 97 95 92 88 87 83 87 87 79 87 96 103 97 86 84 82 67 55 58 54 50 50 47 49 52
181 172 173 170 165 165 159 157 152 153 152 153 144 141 139 132 130 122 114 109 102 97 93 90 89 85 85 83 83 83 77 78 80 72 52 56 65 68 69 69 67 60 58
191 183 178 175 176 178 170 167 163 160 157 151 150 144 146 141 133 124 116 111 107 97 98 95 93 88 80 77 71 66 68 75 82 83 66 66 74 79 81 77 72 65 58
190 191 185 185 182 181 184 183 184 174 167 157 151 152 151 147 137 127 124 119 113 103 100 96 89 81 77 73 68 71 71 73 87 93 77 72 76 79 76 73 67 61 54
198 194 191 188 189 187 185 181 175 173 170 168 162 159 160 153 144 139 132 128 119 110 105 98 89 83 80 77 71 71 83 87 96 101 92 84 83 77 69 65 60 55 50
202 202 195 192 192 192 188 186 178 174 172 171 166 166 166 160 154 147 142 134 124 113 104 97 90 79 78 79 73 76 90 94 101 107 110 92 79 72 68 60 50 42 37
206 205 199 197 195 192 189 186 181 180 177 175 169 169 168 161 160 154 149 139 128 114 102 96 85 72 66 79 76 81 107 106 103 111 114 107 100 80 62 47 33 30 27
202 204 200 197 195 194 191 185 179 179 176 177 171 169 170 166 165 160 152 143 134 127 109 89 89 65 58 78 81 94 133 137 116 112 106 100 82 64 49 33 22 20 17
207 203 201 198 194 191 187 185 183 179 177 175 172 172 171 170 164 164 155 142 130 120 106 87 74 62 47 78 83 111 143 141 147 117 115 93 61 42 28 10 359 351 352
206 205 201 199 196 191 186 183 180 178 175 176 176 175 173 173 168 170 159 145 132 110 93 82 75 60 49 83 95 101 136 145 143 117 123 86 49 30 15 3 355 354 350
204 200 200 197 196 190 186 177 176 175 174 174 174 173 173 172 168 167 159 146 134 121 100 80 76 59 49 58 104 97 91 174 159 122 151 340 4 2 357 356 355 352 346
195 197 195 196 195 193 190 183 179 180 177 178 174 171 173 173 168 165 161 147 131 118 100 79 69 69 54 46 58 90 144 192 248 259 258 287 328 342 347 346 350 348 349
194 195 193 190 191 188 187 183 180 177 170 169 172 172 170 170 168 168 160 148 132 116 98 77 68 76 74 53 49 53 30 349 322 266 239 292 321 339 335 343 346 349 347
208 198 194 189 187 184 186 180 183 172 167 183 178 172 166 167 169 167 165 151 133 117 106 97 84 77 81 65 59 54 61 53 342 303 249 300 321 328 333 337 334 341 343
208 204 197 190 187 184 188 186 183 173 179 184 173 168 166 165 171 169 166 154 142 129 122 114 99 85 78 84 80 76 74 46 56 296 293 318 323 318 315 321 335 339 346
200 200 195 190 186 190 187 189 182 179 177 171 173 171 169 169 169 169 165 159 151 144 138 128 114 105 102 106 103 93 114 163 207 281 291 316 311 308 316 321 333 343 343